Time,TemperatureF,DewpointF,PressureIn,WindDirection,WindDirectionDegrees,WindSpeedMPH,WindSpeedGustMPH,Humidity,HourlyPrecipIn,Conditions,Clouds,dailyrainin,SoftwareType,DateUTC
2013-04-26 00:02:00,48.6,19.3,30.17,SSE,157,0.0,0.0,31,0.00,,,0.00,WUHU21623XXSP,2013-04-26 07:02:00,
2013-04-26 00:07:00,48.0,18.8,30.17,SE,135,0.0,0.0,31,0.00,,,0.00,WUHU21623XXSP,2013-04-26 07:07:00,
2013-04-26 00:12:00,47.8,18.8,30.17,ENE,67,0.0,0.0,31,0.00,,,0.00,WUHU21623XXSP,2013-04-26 07:12:00,
2013-04-26 00:18:00,47.3,18.8,30.18,ESE,112,0.0,0.0,32,0.00,,,0.00,WUHU21623XXSP,2013-04-26 07:18:00,
2013-04-26 00:24:00,46.9,18.7,30.18,SSE,157,0.0,0.0,32,0.00,,,0.00,WUHU21623XXSP,2013-04-26 07:24:00,
2013-04-26 00:35:00,46.2,18.5,30.18,SE,135,0.0,0.0,33,0.00,,,0.00,WUHU21623XXSP,2013-04-26 07:35:00,
2013-04-26 00:43:00,45.7,18.0,30.18,ESE,112,0.0,0.0,33,0.00,,,0.00,WUHU21623XXSP,2013-04-26 07:43:00,
2013-04-26 00:48:00,45.5,18.6,30.18,SSE,157,0.0,0.0,34,0.00,,,0.00,WUHU21623XXSP,2013-04-26 07:48:00,
2013-04-26 00:53:00,45.3,18.4,30.18,WNW,292,0.0,0.0,34,0.00,,,0.00,WUHU21623XXSP,2013-04-26 07:53:00,
2013-04-26 00:58:00,45.1,18.2,30.19,NE,45,0.0,0.0,34,0.00,,,0.00,WUHU21623XXSP,2013-04-26 07:58:00,
2013-04-26 01:03:00,45.0,18.1,30.19,NNE,22,0.0,0.0,34,0.00,,,0.00,WUHU21623XXSP,2013-04-26 08:03:00,
2013-04-26 01:20:00,43.9,17.9,30.19,WNW,292,0.0,0.0,35,0.00,,,0.00,WUHU21623XXSP,2013-04-26 08:20:00,
2013-04-26 01:26:00,43.7,17.6,30.19,WNW,292,0.0,0.0,35,0.00,,,0.00,WUHU21623XXSP,2013-04-26 08:26:00,
2013-04-26 01:39:00,43.0,17.6,30.19,SSE,157,0.0,0.0,36,0.00,,,0.00,WUHU21623XXSP,2013-04-26 08:39:00,
2013-04-26 01:50:00,42.4,17.8,30.19,SSE,157,0.0,0.0,37,0.00,,,0.00,WUHU21623XXSP,2013-04-26 08:50:00,
2013-04-26 01:57:00,42.1,17.5,30.19,NE,45,0.0,0.0,37,0.00,,,0.00,WUHU21623XXSP,2013-04-26 08:57:00,
2013-04-26 02:02:00,42.1,17.5,30.19,NE,45,0.0,0.0,37,0.00,,,0.00,WUHU21623XXSP,2013-04-26 09:02:00,
2013-04-26 02:09:00,41.5,17.0,30.19,NNE,22,0.0,0.0,38,0.00,,,0.00,WUHU21623XXSP,2013-04-26 09:09:00,
2013-04-26 02:22:00,41.0,17.2,30.19,ESE,112,0.0,0.0,38,0.00,,,0.00,WUHU21623XXSP,2013-04-26 09:22:00,
2013-04-26 02:28:00,40.5,17.5,30.19,ENE,67,0.0,0.0,39,0.00,,,0.00,WUHU21623XXSP,2013-04-26 09:28:00,
2013-04-26 02:33:00,40.3,17.2,30.19,East,90,0.0,0.0,39,0.00,,,0.00,WUHU21623XXSP,2013-04-26 09:33:00,
2013-04-26 02:43:00,39.9,16.9,30.20,East,90,0.0,0.0,39,0.00,,,0.00,WUHU21623XXSP,2013-04-26 09:43:00,
2013-04-26 02:57:00,39.4,17.0,30.20,ENE,67,0.0,0.0,40,0.00,,,0.00,WUHU21623XXSP,2013-04-26 09:57:00,
2013-04-26 03:02:00,39.0,16.7,30.19,ENE,67,0.0,0.0,40,0.00,,,0.00,WUHU21623XXSP,2013-04-26 10:02:00,
2013-04-26 03:07:00,39.0,16.7,30.20,NE,45,0.0,0.0,40,0.00,,,0.00,WUHU21623XXSP,2013-04-26 10:07:00,
2013-04-26 03:12:00,38.8,16.6,30.20,NE,45,0.0,0.0,40,0.00,,,0.00,WUHU21623XXSP,2013-04-26 10:12:00,
2013-04-26 03:26:00,38.3,16.1,30.21,SSE,157,0.0,0.0,40,0.00,,,0.00,WUHU21623XXSP,2013-04-26 10:26:00,
2013-04-26 03:35:00,38.1,16.4,30.21,NE,45,0.0,0.0,41,0.00,,,0.00,WUHU21623XXSP,2013-04-26 10:35:00,
2013-04-26 03:41:00,37.9,16.3,30.21,ENE,67,0.0,0.0,41,0.00,,,0.00,WUHU21623XXSP,2013-04-26 10:41:00,
2013-04-26 03:47:00,37.6,15.9,30.21,SSE,157,0.0,0.0,41,0.00,,,0.00,WUHU21623XXSP,2013-04-26 10:47:00,
2013-04-26 03:57:00,37.4,15.8,30.21,SSE,157,0.0,0.0,41,0.00,,,0.00,WUHU21623XXSP,2013-04-26 10:57:00,
2013-04-26 04:02:00,37.2,16.1,30.21,East,90,0.0,0.0,42,0.00,,,0.00,WUHU21623XXSP,2013-04-26 11:02:00,
2013-04-26 04:07:00,37.0,16.0,30.21,East,90,0.0,0.0,42,0.00,,,0.00,WUHU21623XXSP,2013-04-26 11:07:00,
2013-04-26 04:17:00,36.7,15.7,30.21,NE,45,0.0,0.0,42,0.00,,,0.00,WUHU21623XXSP,2013-04-26 11:17:00,
2013-04-26 04:22:00,36.7,15.7,30.21,NE,45,0.0,0.0,42,0.00,,,0.00,WUHU21623XXSP,2013-04-26 11:22:00,
2013-04-26 04:27:00,36.7,16.2,30.21,East,90,0.0,0.0,43,0.00,,,0.00,WUHU21623XXSP,2013-04-26 11:27:00,
2013-04-26 04:37:00,36.3,15.9,30.21,NE,45,0.0,0.0,43,0.00,,,0.00,WUHU21623XXSP,2013-04-26 11:37:00,
2013-04-26 04:43:00,36.3,15.9,30.22,NE,45,0.0,0.0,43,0.00,,,0.00,WUHU21623XXSP,2013-04-26 11:43:00,
2013-04-26 04:49:00,36.3,15.9,30.22,NE,45,0.0,0.0,43,0.00,,,0.00,WUHU21623XXSP,2013-04-26 11:49:00,
2013-04-26 04:57:00,36.1,15.7,30.22,ENE,67,0.0,0.0,43,0.00,,,0.00,WUHU21623XXSP,2013-04-26 11:57:00,
2013-04-26 05:02:00,36.1,15.7,30.22,ENE,67,0.0,0.0,43,0.00,,,0.00,WUHU21623XXSP,2013-04-26 12:02:00,
2013-04-26 05:17:00,35.4,15.5,30.22,NE,45,0.0,0.0,44,0.00,,,0.00,WUHU21623XXSP,2013-04-26 12:17:00,
2013-04-26 05:22:00,35.4,15.5,30.22,NE,45,0.0,0.0,44,0.00,,,0.00,WUHU21623XXSP,2013-04-26 12:22:00,
2013-04-26 05:27:00,35.4,15.5,30.22,NE,45,0.0,0.0,44,0.00,,,0.00,WUHU21623XXSP,2013-04-26 12:27:00,
2013-04-26 05:34:00,35.2,15.4,30.22,East,90,0.0,0.0,44,0.00,,,0.00,WUHU21623XXSP,2013-04-26 12:34:00,
2013-04-26 05:41:00,35.2,15.4,30.22,ENE,67,0.0,0.0,44,0.00,,,0.00,WUHU21623XXSP,2013-04-26 12:41:00,
2013-04-26 05:49:00,34.9,15.6,30.23,East,90,0.0,0.0,45,0.00,,,0.00,WUHU21623XXSP,2013-04-26 12:49:00,
2013-04-26 05:54:00,34.9,15.6,30.23,ESE,112,0.0,0.0,45,0.00,,,0.00,WUHU21623XXSP,2013-04-26 12:54:00,
2013-04-26 05:59:00,34.9,15.6,30.23,SE,135,0.0,0.0,45,0.00,,,0.00,WUHU21623XXSP,2013-04-26 12:59:00,
2013-04-26 06:04:00,34.5,15.2,30.23,SW,225,0.0,0.0,45,0.00,,,0.00,WUHU21623XXSP,2013-04-26 13:04:00,
2013-04-26 06:13:00,34.3,15.5,30.24,SSE,157,0.0,0.0,46,0.00,,,0.00,WUHU21623XXSP,2013-04-26 13:13:00,
2013-04-26 06:19:00,34.2,15.4,30.24,SSE,157,0.0,0.0,46,0.00,,,0.00,WUHU21623XXSP,2013-04-26 13:19:00,
2013-04-26 06:26:00,34.0,15.2,30.25,NNW,337,0.0,0.0,46,0.00,,,0.00,WUHU21623XXSP,2013-04-26 13:26:00,
2013-04-26 06:31:00,34.0,15.2,30.25,North,0,0.0,0.0,46,0.00,,,0.00,WUHU21623XXSP,2013-04-26 13:31:00,
2013-04-26 06:36:00,34.0,15.2,30.24,North,0,0.0,0.0,46,0.00,,,0.00,WUHU21623XXSP,2013-04-26 13:36:00,
2013-04-26 06:41:00,34.2,15.4,30.25,NNW,337,0.0,0.0,46,0.00,,,0.00,WUHU21623XXSP,2013-04-26 13:41:00,
2013-04-26 06:46:00,34.2,15.4,30.25,NNW,337,0.0,0.0,46,0.00,,,0.00,WUHU21623XXSP,2013-04-26 13:46:00,
2013-04-26 06:51:00,34.3,16.1,30.25,NNW,337,0.0,0.0,47,0.00,,,0.00,WUHU21623XXSP,2013-04-26 13:51:00,
2013-04-26 06:56:00,34.5,16.2,30.25,NNW,337,0.0,0.0,47,0.00,,,0.00,WUHU21623XXSP,2013-04-26 13:56:00,
2013-04-26 07:01:00,34.5,16.2,30.25,NNW,337,0.0,0.0,47,0.00,,,0.00,WUHU21623XXSP,2013-04-26 14:01:00,
2013-04-26 07:15:00,35.8,18.5,30.26,NNW,337,0.0,0.0,49,0.00,,,0.00,WUHU21623XXSP,2013-04-26 14:15:00,
2013-04-26 07:20:00,36.3,18.8,30.26,North,0,0.0,0.0,49,0.00,,,0.00,WUHU21623XXSP,2013-04-26 14:20:00,
2013-04-26 07:30:00,37.9,21.0,30.26,South,180,0.0,0.0,50,0.00,,,0.00,WUHU21623XXSP,2013-04-26 14:30:00,
2013-04-26 07:36:00,38.8,21.5,30.26,NW,315,0.0,0.0,50,0.00,,,0.00,WUHU21623XXSP,2013-04-26 14:36:00,
2013-04-26 07:47:00,39.7,22.6,30.27,WNW,292,0.0,0.0,50,0.00,,,0.00,WUHU21623XXSP,2013-04-26 14:47:00,
2013-04-26 07:52:00,40.3,23.1,30.27,West,270,0.0,0.0,50,0.00,,,0.00,WUHU21623XXSP,2013-04-26 14:52:00,
2013-04-26 07:57:00,40.3,23.1,30.27,West,270,0.0,0.0,50,0.00,,,0.00,WUHU21623XXSP,2013-04-26 14:57:00,
2013-04-26 08:02:00,41.4,24.1,30.27,West,270,0.0,0.0,50,0.00,,,0.00,WUHU21623XXSP,2013-04-26 15:02:00,
2013-04-26 08:08:00,42.4,24.6,30.28,South,180,0.0,0.0,49,0.00,,,0.00,WUHU21623XXSP,2013-04-26 15:08:00,
2013-04-26 08:13:00,43.0,25.1,30.28,SSW,202,0.0,0.0,49,0.00,,,0.00,WUHU21623XXSP,2013-04-26 15:13:00,
2013-04-26 08:19:00,43.5,25.1,30.28,SSE,157,0.0,0.0,48,0.00,,,0.00,WUHU21623XXSP,2013-04-26 15:19:00,
2013-04-26 08:24:00,44.2,25.7,30.27,South,180,0.0,0.0,48,0.00,,,0.00,WUHU21623XXSP,2013-04-26 15:24:00,
2013-04-26 08:36:00,45.7,27.0,30.28,South,180,0.0,0.0,48,0.00,,,0.00,WUHU21623XXSP,2013-04-26 15:36:00,
2013-04-26 08:43:00,46.6,27.3,30.28,ENE,67,0.0,0.0,47,0.00,,,0.00,WUHU21623XXSP,2013-04-26 15:43:00,
2013-04-26 08:55:00,48.6,29.1,30.27,ESE,112,0.0,0.0,47,0.00,,,0.00,WUHU21623XXSP,2013-04-26 15:55:00,
2013-04-26 09:00:00,49.3,29.8,30.27,South,180,3.6,3.6,47,0.00,,,0.00,WUHU21623XXSP,2013-04-26 16:00:00,
2013-04-26 09:05:00,49.8,29.8,30.27,ESE,112,0.0,3.6,46,0.00,,,0.00,WUHU21623XXSP,2013-04-26 16:05:00,
2013-04-26 09:13:00,51.3,30.5,30.28,ENE,67,0.0,0.0,45,0.00,,,0.00,WUHU21623XXSP,2013-04-26 16:13:00,
2013-04-26 09:18:00,52.0,30.6,30.27,SSE,157,0.0,0.0,44,0.00,,,0.00,WUHU21623XXSP,2013-04-26 16:18:00,
2013-04-26 09:23:00,53.2,31.3,30.27,SSE,157,0.0,0.0,44,0.00,,,0.00,WUHU21623XXSP,2013-04-26 16:23:00,
2013-04-26 09:28:00,53.2,31.7,30.27,SSE,157,4.7,4.7,44,0.00,,,0.00,WUHU21623XXSP,2013-04-26 16:28:00,
2013-04-26 09:34:00,54.5,32.0,30.27,South,180,0.0,4.7,43,0.00,,,0.00,WUHU21623XXSP,2013-04-26 16:34:00,
2013-04-26 09:54:00,56.5,33.0,30.27,South,180,0.0,0.0,40,0.00,,,0.00,WUHU21623XXSP,2013-04-26 16:54:00,
2013-04-26 10:00:00,57.0,32.9,30.27,SW,225,0.0,0.0,40,0.00,,,0.00,WUHU21623XXSP,2013-04-26 17:00:00,
2013-04-26 10:05:00,57.9,32.9,30.28,South,180,0.0,0.0,39,0.00,,,0.00,WUHU21623XXSP,2013-04-26 17:05:00,
2013-04-26 10:10:00,58.3,33.0,30.27,NNW,337,0.0,0.0,39,0.00,,,0.00,WUHU21623XXSP,2013-04-26 17:10:00,
2013-04-26 10:15:00,58.8,33.1,30.27,SSE,157,0.0,0.0,38,0.00,,,0.00,WUHU21623XXSP,2013-04-26 17:15:00,
2013-04-26 10:23:00,59.9,34.1,30.27,NNE,22,0.0,0.0,38,0.00,,,0.00,WUHU21623XXSP,2013-04-26 17:23:00,
2013-04-26 10:34:00,61.3,33.2,30.27,NNE,22,0.0,0.0,35,0.00,,,0.00,WUHU21623XXSP,2013-04-26 17:34:00,
2013-04-26 10:47:00,63.1,35.5,30.27,East,90,0.0,0.0,36,0.00,,,0.00,WUHU21623XXSP,2013-04-26 17:47:00,
2013-04-26 10:57:00,64.6,35.1,30.27,North,0,1.6,1.6,34,0.00,,,0.00,WUHU21623XXSP,2013-04-26 17:57:00,
2013-04-26 11:02:00,64.8,35.6,30.27,West,270,0.0,1.6,34,0.00,,,0.00,WUHU21623XXSP,2013-04-26 18:02:00,
2013-04-26 11:07:00,65.5,34.6,30.27,WNW,292,0.0,0.0,32,0.00,,,0.00,WUHU21623XXSP,2013-04-26 18:07:00,
2013-04-26 11:15:00,66.0,33.8,30.27,WNW,292,2.5,2.5,30,0.00,,,0.00,WUHU21623XXSP,2013-04-26 18:15:00,
2013-04-26 11:21:00,66.6,32.3,30.27,NNE,22,0.0,2.5,28,0.00,,,0.00,WUHU21623XXSP,2013-04-26 18:21:00,
2013-04-26 11:26:00,66.9,34.6,30.27,SSW,202,0.0,0.0,30,0.00,,,0.00,WUHU21623XXSP,2013-04-26 18:26:00,
2013-04-26 11:34:00,67.6,33.1,30.26,NNW,337,0.0,0.0,28,0.00,,,0.00,WUHU21623XXSP,2013-04-26 18:34:00,
2013-04-26 11:39:00,68.0,32.5,30.27,West,270,0.0,0.0,28,0.00,,,0.00,WUHU21623XXSP,2013-04-26 18:39:00,
2013-04-26 11:47:00,68.7,32.1,30.26,NE,45,0.0,0.0,26,0.00,,,0.00,WUHU21623XXSP,2013-04-26 18:47:00,
2013-04-26 11:59:00,69.8,34.0,30.26,SSW,202,0.0,0.0,27,0.00,,,0.00,WUHU21623XXSP,2013-04-26 18:59:00,
2013-04-26 12:08:00,70.3,33.5,30.26,West,270,0.0,0.0,26,0.00,,,0.00,WUHU21623XXSP,2013-04-26 19:08:00,
2013-04-26 12:14:00,70.9,32.9,30.26,SSW,202,0.0,0.0,25,0.00,,,0.00,WUHU21623XXSP,2013-04-26 19:14:00,
2013-04-26 12:23:00,71.4,33.4,30.26,WSW,247,0.0,0.0,25,0.00,,,0.00,WUHU21623XXSP,2013-04-26 19:23:00,
2013-04-26 12:38:00,72.1,33.0,30.25,SE,135,0.0,0.0,24,0.00,,,0.00,WUHU21623XXSP,2013-04-26 19:38:00,
2013-04-26 12:47:00,72.1,31.9,30.25,South,180,0.9,0.9,23,0.00,,,0.00,WUHU21623XXSP,2013-04-26 19:47:00,
2013-04-26 12:53:00,72.5,32.3,30.25,SW,225,3.6,3.6,23,0.00,,,0.00,WUHU21623XXSP,2013-04-26 19:53:00,
2013-04-26 13:02:00,73.0,32.7,30.25,North,0,0.0,3.6,23,0.00,,,0.00,WUHU21623XXSP,2013-04-26 20:02:00,
2013-04-26 13:07:00,73.2,32.7,30.25,North,0,0.0,0.0,22,0.00,,,0.00,WUHU21623XXSP,2013-04-26 20:07:00,
2013-04-26 13:14:00,73.6,33.2,30.25,SSE,157,9.2,9.2,23,0.00,,,0.00,WUHU21623XXSP,2013-04-26 20:14:00,
2013-04-26 13:27:00,73.8,32.3,30.25,SE,135,0.0,0.0,22,0.00,,,0.00,WUHU21623XXSP,2013-04-26 20:27:00,
2013-04-26 13:34:00,74.3,31.7,30.25,WNW,292,3.6,3.6,21,0.00,,,0.00,WUHU21623XXSP,2013-04-26 20:34:00,
2013-04-26 13:44:00,75.9,32.0,30.25,NNW,337,0.0,0.0,20,0.00,,,0.00,WUHU21623XXSP,2013-04-26 20:44:00,
2013-04-26 13:53:00,77.0,32.9,30.25,NNW,337,0.0,0.0,20,0.00,,,0.00,WUHU21623XXSP,2013-04-26 20:53:00,
2013-04-26 13:59:00,77.2,33.0,30.25,SSE,157,0.0,0.0,20,0.00,,,0.00,WUHU21623XXSP,2013-04-26 20:59:00,
2013-04-26 14:12:00,77.4,29.9,30.24,WNW,292,3.6,3.6,18,0.00,,,0.00,WUHU21623XXSP,2013-04-26 21:12:00,
2013-04-26 14:18:00,77.5,28.3,30.24,WNW,292,2.2,3.6,17,0.00,,,0.00,WUHU21623XXSP,2013-04-26 21:18:00,
2013-04-26 14:24:00,77.5,28.3,30.23,WNW,292,0.0,2.2,17,0.00,,,0.00,WUHU21623XXSP,2013-04-26 21:24:00,
2013-04-26 14:29:00,77.5,28.3,30.24,North,0,0.0,0.0,17,0.00,,,0.00,WUHU21623XXSP,2013-04-26 21:29:00,
2013-04-26 14:36:00,77.5,26.7,30.23,North,0,1.1,1.1,16,0.00,,,0.00,WUHU21623XXSP,2013-04-26 21:36:00,
2013-04-26 14:44:00,77.2,28.1,30.23,SSW,202,2.2,2.2,17,0.00,,,0.00,WUHU21623XXSP,2013-04-26 21:44:00,
2013-04-26 14:50:00,77.2,28.1,30.23,NW,315,4.3,4.3,16,0.00,,,0.00,WUHU21623XXSP,2013-04-26 21:50:00,
2013-04-26 14:55:00,77.2,26.4,30.23,SE,135,0.0,4.3,16,0.00,,,0.00,WUHU21623XXSP,2013-04-26 21:55:00,
2013-04-26 15:01:00,77.4,28.2,30.23,WSW,247,0.0,0.0,17,0.00,,,0.00,WUHU21623XXSP,2013-04-26 22:01:00,
2013-04-26 15:07:00,77.4,28.2,30.23,East,90,0.0,0.0,17,0.00,,,0.00,WUHU21623XXSP,2013-04-26 22:07:00,
2013-04-26 15:14:00,77.9,28.6,30.22,West,270,0.0,0.0,17,0.00,,,0.00,WUHU21623XXSP,2013-04-26 22:14:00,
2013-04-26 15:20:00,78.4,29.0,30.22,WNW,292,4.0,4.0,17,0.00,,,0.00,WUHU21623XXSP,2013-04-26 22:20:00,
2013-04-26 15:37:00,78.6,25.8,30.22,NW,315,8.3,8.3,15,0.00,,,0.00,WUHU21623XXSP,2013-04-26 22:37:00,
2013-04-26 15:42:00,78.6,25.8,30.22,NW,315,0.0,8.3,15,0.00,,,0.00,WUHU21623XXSP,2013-04-26 22:42:00,
2013-04-26 15:48:00,78.4,25.7,30.22,North,0,0.0,0.0,15,0.00,,,0.00,WUHU21623XXSP,2013-04-26 22:48:00,
2013-04-26 15:53:00,78.1,25.6,30.22,NNW,337,0.0,0.0,15,0.00,,,0.00,WUHU21623XXSP,2013-04-26 22:53:00,
2013-04-26 16:03:00,77.9,23.6,30.21,WNW,292,4.3,4.3,14,0.00,,,0.00,WUHU21623XXSP,2013-04-26 23:03:00,
2013-04-26 16:08:00,77.9,23.6,30.22,WNW,292,4.3,4.3,14,0.00,,,0.00,WUHU21623XXSP,2013-04-26 23:08:00,
2013-04-26 16:14:00,77.5,25.0,30.21,NW,315,0.0,4.3,15,0.00,,,0.00,WUHU21623XXSP,2013-04-26 23:14:00,
2013-04-26 16:25:00,77.4,24.9,30.22,NW,315,0.0,0.0,15,0.00,,,0.00,WUHU21623XXSP,2013-04-26 23:25:00,
2013-04-26 16:33:00,77.4,24.9,30.22,WNW,292,6.3,6.3,15,0.00,,,0.00,WUHU21623XXSP,2013-04-26 23:33:00,
2013-04-26 16:40:00,77.4,24.9,30.22,West,270,0.0,6.3,15,0.00,,,0.00,WUHU21623XXSP,2013-04-26 23:40:00,
2013-04-26 16:45:00,77.2,24.7,30.21,West,270,4.0,4.0,15,0.00,,,0.00,WUHU21623XXSP,2013-04-26 23:45:00,
2013-04-26 16:50:00,77.2,24.7,30.21,NNW,337,5.8,5.8,15,0.00,,,0.00,WUHU21623XXSP,2013-04-26 23:50:00,
2013-04-26 16:55:00,76.8,24.5,30.21,WSW,247,0.0,5.8,15,0.00,,,0.00,WUHU21623XXSP,2013-04-26 23:55:00,
2013-04-26 17:05:00,76.6,26.0,30.21,West,270,0.0,3.1,16,0.00,,,0.00,WUHU21623XXSP,2013-04-27 00:05:00,
2013-04-26 17:14:00,76.3,25.7,30.21,NE,45,0.0,0.0,16,0.00,,,0.00,WUHU21623XXSP,2013-04-27 00:14:00,
2013-04-26 17:19:00,76.3,25.7,30.21,West,270,0.0,0.0,16,0.00,,,0.00,WUHU21623XXSP,2013-04-27 00:19:00,
2013-04-26 17:24:00,76.3,25.7,30.21,SSE,157,0.0,0.0,16,0.00,,,0.00,WUHU21623XXSP,2013-04-27 00:24:00,
2013-04-26 17:29:00,76.1,25.6,30.21,SE,135,0.0,0.0,16,0.00,,,0.00,WUHU21623XXSP,2013-04-27 00:29:00,
2013-04-26 17:41:00,75.2,26.5,30.21,WNW,292,0.0,0.0,17,0.00,,,0.00,WUHU21623XXSP,2013-04-27 00:41:00,
2013-04-26 17:48:00,75.0,26.3,30.21,SSW,202,0.0,0.0,17,0.00,,,0.00,WUHU21623XXSP,2013-04-27 00:48:00,
2013-04-26 17:57:00,75.0,26.3,30.21,WSW,247,0.0,0.0,17,0.00,,,0.00,WUHU21623XXSP,2013-04-27 00:57:00,
2013-04-26 18:03:00,74.8,26.2,30.21,WSW,247,0.0,0.0,17,0.00,,,0.00,WUHU21623XXSP,2013-04-27 01:03:00,
2013-04-26 18:08:00,74.8,26.2,30.21,WNW,292,0.0,0.0,17,0.00,,,0.00,WUHU21623XXSP,2013-04-27 01:08:00,
2013-04-26 18:16:00,74.5,25.9,30.21,West,270,0.0,0.0,17,0.00,,,0.00,WUHU21623XXSP,2013-04-27 01:16:00,
2013-04-26 18:21:00,74.5,25.9,30.21,SSW,202,0.0,0.0,17,0.00,,,0.00,WUHU21623XXSP,2013-04-27 01:21:00,
2013-04-26 18:26:00,74.5,25.9,30.21,NW,315,0.0,0.0,17,0.00,,,0.00,WUHU21623XXSP,2013-04-27 01:26:00,
2013-04-26 18:31:00,74.1,25.8,30.21,WNW,292,1.1,1.1,17,0.00,,,0.00,WUHU21623XXSP,2013-04-27 01:31:00,
2013-04-26 18:36:00,74.1,25.6,30.22,WNW,292,0.0,1.1,17,0.00,,,0.00,WUHU21623XXSP,2013-04-27 01:36:00,
2013-04-26 18:41:00,73.9,25.6,30.22,WNW,292,6.7,6.7,17,0.00,,,0.00,WUHU21623XXSP,2013-04-27 01:41:00,
2013-04-26 18:46:00,73.9,27.2,30.21,WNW,292,6.3,6.7,18,0.00,,,0.00,WUHU21623XXSP,2013-04-27 01:46:00,
2013-04-26 18:51:00,73.8,27.0,30.22,SW,225,0.0,6.3,18,0.00,,,0.00,WUHU21623XXSP,2013-04-27 01:51:00,
2013-04-26 19:00:00,73.2,28.2,30.22,West,270,3.4,3.4,19,0.00,,,0.00,WUHU21623XXSP,2013-04-27 02:00:00,
2013-04-26 19:05:00,73.2,30.9,30.22,WSW,247,3.6,3.6,21,0.00,,,0.00,WUHU21623XXSP,2013-04-27 02:05:00,
2013-04-26 19:10:00,73.2,30.9,30.22,WSW,247,3.6,3.6,21,0.00,,,0.00,WUHU21623XXSP,2013-04-27 02:10:00,
2013-04-26 19:17:00,72.3,31.1,30.22,WNW,292,3.4,3.6,22,0.00,,,0.00,WUHU21623XXSP,2013-04-27 02:17:00,
2013-04-26 19:28:00,71.4,32.3,30.23,WNW,292,7.4,7.4,24,0.00,,,0.00,WUHU21623XXSP,2013-04-27 02:28:00,
2013-04-26 19:35:00,70.9,32.9,30.22,WNW,292,0.0,7.4,25,0.00,,,0.00,WUHU21623XXSP,2013-04-27 02:35:00,
2013-04-26 19:40:00,70.5,32.6,30.23,WSW,247,3.6,3.6,25,0.00,,,0.00,WUHU21623XXSP,2013-04-27 02:40:00,
2013-04-26 19:45:00,70.0,33.6,30.23,West,270,0.0,4.5,26,0.00,,,0.00,WUHU21623XXSP,2013-04-27 02:45:00,
2013-04-26 19:50:00,69.6,32.8,30.23,WNW,292,7.4,7.4,26,0.00,,,0.00,WUHU21623XXSP,2013-04-27 02:50:00,
2013-04-26 19:56:00,69.1,33.4,30.23,WNW,292,5.1,7.4,27,0.00,,,0.00,WUHU21623XXSP,2013-04-27 02:56:00,
2013-04-26 20:07:00,68.2,34.6,30.23,WNW,292,5.6,5.6,29,0.00,,,0.00,WUHU21623XXSP,2013-04-27 03:07:00,
2013-04-26 20:12:00,67.8,33.3,30.23,WNW,292,2.5,5.6,28,0.00,,,0.00,WUHU21623XXSP,2013-04-27 03:12:00,
2013-04-26 20:17:00,67.6,33.1,30.24,West,270,5.6,5.6,28,0.00,,,0.00,WUHU21623XXSP,2013-04-27 03:17:00,
2013-04-26 20:22:00,67.3,34.8,30.23,West,270,3.4,5.6,30,0.00,,,0.00,WUHU21623XXSP,2013-04-27 03:22:00,
2013-04-26 20:28:00,66.9,34.6,30.24,WNW,292,0.0,3.4,30,0.00,,,0.00,WUHU21623XXSP,2013-04-27 03:28:00,
2013-04-26 20:37:00,66.6,35.0,30.24,WNW,292,4.3,4.3,31,0.00,,,0.00,WUHU21623XXSP,2013-04-27 03:37:00,
2013-04-26 20:47:00,66.0,34.5,30.25,West,270,1.6,1.6,31,0.00,,,0.00,WUHU21623XXSP,2013-04-27 03:47:00,
2013-04-26 20:52:00,66.0,34.5,30.25,WNW,292,9.8,9.8,31,0.00,,,0.00,WUHU21623XXSP,2013-04-27 03:52:00,
2013-04-26 20:57:00,65.8,34.4,30.25,WNW,292,2.9,9.8,32,0.00,,,0.00,WUHU21623XXSP,2013-04-27 03:57:00,
2013-04-26 21:02:00,65.5,34.8,30.25,WNW,292,4.0,4.0,32,0.00,,,0.00,WUHU21623XXSP,2013-04-27 04:02:00,
2013-04-26 21:03:00,65.5,34.8,30.25,WNW,292,4.0,4.0,32,0.00,,,0.00,WUHU21623XXSP,2013-04-27 04:03:00,
2013-04-26 21:04:00,65.5,34.8,30.25,WNW,292,4.0,4.0,32,0.00,,,0.00,WUHU21623XXSP,2013-04-27 04:04:00,
2013-04-26 21:13:00,65.1,34.4,30.25,North,0,0.0,0.0,32,0.00,,,0.00,WUHU21623XXSP,2013-04-27 04:13:00,
2013-04-26 21:18:00,65.1,34.4,30.26,NW,315,7.4,7.4,32,0.00,,,0.00,WUHU21623XXSP,2013-04-27 04:18:00,
2013-04-26 21:23:00,64.9,35.0,30.26,West,270,9.4,9.4,33,0.00,,,0.00,WUHU21623XXSP,2013-04-27 04:23:00,
2013-04-26 21:28:00,64.9,35.0,30.26,WNW,292,10.5,10.5,33,0.00,,,0.00,WUHU21623XXSP,2013-04-27 04:28:00,
2013-04-26 21:33:00,64.9,35.0,30.26,WNW,292,3.4,10.5,33,0.00,,,0.00,WUHU21623XXSP,2013-04-27 04:33:00,
2013-04-26 21:39:00,64.8,34.8,30.27,North,0,0.0,4.7,33,0.00,,,0.00,WUHU21623XXSP,2013-04-27 04:39:00,
2013-04-26 21:44:00,64.8,34.8,30.27,East,90,0.0,4.7,32,0.00,,,0.00,WUHU21623XXSP,2013-04-27 04:44:00,
2013-04-26 21:49:00,64.8,34.1,30.27,NE,45,0.0,0.0,32,0.00,,,0.00,WUHU21623XXSP,2013-04-27 04:49:00,
2013-04-26 21:56:00,64.2,33.6,30.28,East,90,0.0,0.0,32,0.00,,,0.00,WUHU21623XXSP,2013-04-27 04:56:00,
2013-04-26 22:01:00,64.0,33.5,30.27,NW,315,0.0,0.0,32,0.00,,,0.00,WUHU21623XXSP,2013-04-27 05:01:00,
2013-04-26 22:06:00,63.5,33.0,30.28,NNW,337,0.0,0.0,32,0.00,,,0.00,WUHU21623XXSP,2013-04-27 05:06:00,
2013-04-26 22:11:00,62.8,32.7,30.28,NE,45,0.0,0.0,32,0.00,,,0.00,WUHU21623XXSP,2013-04-27 05:11:00,
2013-04-26 22:16:00,62.6,32.3,30.28,NE,45,0.0,0.0,32,0.00,,,0.00,WUHU21623XXSP,2013-04-27 05:16:00,
2013-04-26 22:21:00,62.2,31.9,30.28,NNE,22,0.0,0.0,32,0.00,,,0.00,WUHU21623XXSP,2013-04-27 05:21:00,
2013-04-26 22:32:00,60.8,31.3,30.29,ESE,112,0.0,0.0,33,0.00,,,0.00,WUHU21623XXSP,2013-04-27 05:32:00,
2013-04-26 22:37:00,60.4,31.1,30.29,ESE,112,0.0,0.0,33,0.00,,,0.00,WUHU21623XXSP,2013-04-27 05:37:00,
2013-04-26 22:43:00,59.9,30.5,30.29,NE,45,0.0,0.0,33,0.00,,,0.00,WUHU21623XXSP,2013-04-27 05:43:00,
2013-04-26 22:48:00,59.4,30.9,30.29,NE,45,0.0,0.0,34,0.00,,,0.00,WUHU21623XXSP,2013-04-27 05:48:00,
2013-04-26 22:54:00,58.8,30.3,30.29,ESE,112,0.0,0.0,34,0.00,,,0.00,WUHU21623XXSP,2013-04-27 05:54:00,
2013-04-26 22:59:00,58.3,29.8,30.29,ENE,67,0.0,0.0,34,0.00,,,0.00,WUHU21623XXSP,2013-04-27 05:59:00,
2013-04-26 23:04:00,57.9,29.5,30.29,ESE,112,0.0,0.0,34,0.00,,,0.00,WUHU21623XXSP,2013-04-27 06:04:00,
2013-04-26 23:09:00,57.4,29.7,30.29,ESE,112,0.0,0.0,35,0.00,,,0.00,WUHU21623XXSP,2013-04-27 06:09:00,
2013-04-26 23:24:00,55.9,28.4,30.29,ESE,112,0.0,0.0,35,0.00,,,0.00,WUHU21623XXSP,2013-04-27 06:24:00,
2013-04-26 23:32:00,55.2,28.5,30.29,SE,135,0.0,0.0,36,0.00,,,0.00,WUHU21623XXSP,2013-04-27 06:32:00,
2013-04-26 23:37:00,55.2,28.5,30.29,SE,135,0.0,0.0,36,0.00,,,0.00,WUHU21623XXSP,2013-04-27 06:37:00,
2013-04-26 23:42:00,54.7,28.0,30.29,ESE,112,0.0,0.0,36,0.00,,,0.00,WUHU21623XXSP,2013-04-27 06:42:00,
2013-04-26 23:47:00,54.3,27.7,30.29,ENE,67,0.0,0.0,36,0.00,,,0.00,WUHU21623XXSP,2013-04-27 06:47:00,
2013-04-26 23:54:00,54.0,26.7,30.29,SSE,157,0.0,0.0,35,0.00,,,0.00,WUHU21623XXSP,2013-04-27 06:54:00,
2013-04-26 23:59:00,53.8,27.2,30.29,SSE,157,0.0,0.0,36,0.00,,,0.00,WUHU21623XXSP,2013-04-27 06:59:00,